User: anonymous   Login
Location: Unspecified
(0.0000°N, 0.0000°E)
Time: 03:44:46
(UTC+00:00)
Language:

VELOX 1 - Orbit

View from above orbital plane
View from above orbital plane
View from above satellite
View from above satellite

Ground track
Ground track

The orbit data is extracted from the following two-line orbital elements,

1 40057U 14034E   19016.83863108  .00000212  00000-0  37349-4 0  9997
2 40057  98.2195 136.8242 0011113  10.1999 349.9437 14.77568308245193
Epoch (UTC): 16 January 2019 20:07:37
Eccentricity: 0.0011113
inclination: 98.2195°
perigee height: 629 km
apogee height: 645 km
right ascension of ascending node: 136.8242°
argument of perigee: 10.1999°
revolutions per day: 14.77568308
mean anomaly at epoch: 349.9437°
orbit number at epoch: 24519

The dashed part of the orbit path shows where the satellite is in the earth's shadow,  

DLR